This is the latest recevied weather packets stored in our database for station/object KO4APQ. If no packets are shown the sender has not sent any weather packets the latest 10 day(s).
| Time | Temp. | Humidity | Pressure | Rain* | Wind** | Luminosity | Snow |
|---|---|---|---|---|---|---|---|
| 1778175549 | 23.89° C | 64% | 1010.7 hPa | 0 mm | - | 645 W/m² | - |
| 1778175246 | 23.33° C | 67% | 1010.9 hPa | 0 mm | - | 849 W/m² | - |
| 1778174942 | 23.89° C | 68% | 1010.6 hPa | 0 mm | - | 1034 W/m² | - |
| 1778174639 | 23.89° C | 66% | 1010.5 hPa | 0 mm | - | 1310 W/m² | - |
| 1778174335 | 23.33° C | 65% | 1010.7 hPa | 0 mm | - | 1372 W/m² | - |
| 1778174032 | 23.33° C | 68% | 1010.7 hPa | 0 mm | - | 1032 W/m² | - |
| 1778173729 | 23.33° C | 70% | 1010.6 hPa | 0 mm | - | 529 W/m² | - |
| 1778173426 | 23.33° C | 68% | 1010.5 hPa | 0 mm | - | 1148 W/m² | - |
| 1778173122 | 23.33° C | 66% | 1010.6 hPa | 0 mm | - | 1184 W/m² | - |
| 1778172817 | 22.78° C | 71% | 1010.7 hPa | 0 mm | - | 746 W/m² | - |
| 1778172514 | 22.78° C | 68% | 1010.7 hPa | 0 mm | - | 1154 W/m² | - |
| 1778172211 | 22.78° C | 74% | 1010.6 hPa | 0 mm | - | 1096 W/m² | - |
| 1778171908 | 22.78° C | 70% | 1010.6 hPa | 0 mm | - | 413 W/m² | - |
| 1778171605 | 22.22° C | 73% | 1010.7 hPa | 0 mm | - | 1085 W/m² | - |
| 1778171302 | 21.67° C | 78% | 1010.7 hPa | 0 mm | - | 289 W/m² | - |
| 1778170998 | 21.67° C | 82% | 1010.6 hPa | 0 mm | - | 360 W/m² | - |
| 1778170695 | 21.67° C | 82% | 1010.8 hPa | 0 mm | - | 268 W/m² | - |
| 1778170391 | 21.67° C | 81% | 1010.7 hPa | 0 mm | - | 441 W/m² | - |
| 1778170088 | 21.11° C | 83% | 1010.9 hPa | 0 mm | - | 1103 W/m² | - |
| 1778169784 | 21.11° C | 84% | 1011.2 hPa | 0 mm | - | 1276 W/m² | - |
| 1778169480 | 21.11° C | 85% | 1011.2 hPa | 0 mm | - | 336 W/m² | - |
| 1778169176 | 21.11° C | 82% | 1011.6 hPa | 0 mm | - | 214 W/m² | - |
| 1778168873 | 21.11° C | 82% | 1011.5 hPa | 0 mm | - | 198 W/m² | - |
| 1778168570 | 21.67° C | 82% | 1011.4 hPa | 0 mm | - | 433 W/m² | - |
| 1778168267 | 21.67° C | 80% | 1011.2 hPa | 0 mm | - | 395 W/m² | - |
* Rain latest hour (hover to see other rain measurements)
** Current wind speed in m/s (hover to see current wind gust speed)